GFSFLT1_prec_kuchsnow_273.txt.gz
Snowfall_Accumulation
0.0 0.0 0.0 0.0 0.0 0.0 0.0 0.0 0.0 0.0 0.0 0.0 0.0 0.0 0.0 0.0 0.0 0.0 0.0 0.0 0.0 0.0 0.0 0.0 0.0 0.0 0.0 0.0 0.0 0.0 0.0 0.0
0.0 0.0 0.0 0.0 0.0 0.0 0.0 0.0 0.0 0.0 0.0 0.0 0.0 0.0 0.0 0.0 0.0 0.0 0.0 0.0 0.0 0.0 0.0 0.0 0.0 0.0 0.0 0.0 0.0 0.0 0.0 0.0
0.0 0.0 0.0 0.0 0.0 0.0 0.0 0.0 0.0 0.0 0.0 0.0 0.0 0.0 0.0 0.0 0.0 0.0 0.0 0.0 0.0 0.0 0.0 0.0 0.0 0.0 0.0 0.0 0.0 0.0 0.0 0.0
0.0 0.0 0.0 0.0 0.0 0.0 0.0 0.0 0.0 0.0 0.0 0.0 0.0 0.0 0.0 0.0 0.0 0.0 0.0 0.0 0.0 0.0 0.0 0.0 0.0 0.0 0.0 0.0 0.0 0.0 0.0 0.0
0.0 0.0 0.0 0.0 0.0 0.0 0.0 0.0 0.0 0.0 0.0 0.0 0.0 0.0 0.0 0.0 0.0 0.0 0.0 0.0 0.0 0.0 0.0 0.0 0.0 0.0 0.0 0.0 0.0 0.0 0.0 0.0
0.0 0.0 0.0 0.0 0.0 0.0 0.0 0.0 0.0 0.0 0.0 0.0 0.0 0.0 0.0 0.0 0.0 0.0 0.0 0.0 0.0 0.0 0.0 0.0 0.0 0.0 0.0 0.0 0.0 0.0 0.0 0.0
0.0 0.0 0.0 0.0 0.0 0.0 0.0 0.0 0.0 0.0 0.0 0.0 0.0 0.0 0.0 0.0 0.0 0.0 0.0 0.0 0.0 0.0 0.0 0.0 0.0 0.0 0.0 0.0 0.0 0.0 0.0 0.1
0.2 0.0 0.8 0.5 0.1 0.1 0.0 0.0 0.0 0.0 0.0 0.0 0.0 0.0 0.0 0.1 0.1 0.0 0.0 0.0 0.0 0.0 0.0 0.0 0.0 0.0 0.0 0.0 0.0 0.0 0.0 0.0
1.3 4.0 1.6 1.0 0.6 0.6 0.6 0.0 0.1 0.0 0.0 0.0 0.0 0.0 0.1 0.1 0.1 0.1 0.1 0.0 0.0 0.0 0.0 0.0 0.0 0.0 0.0 0.0 0.0 0.0 0.0 0.1
3.4 3.7 1.5 0.8 4.7 7.3 2.4 1.6 0.2 0.1 0.0 0.0 0.1 0.0 0.0 0.1 0.1 0.0 0.1 0.1 0.0 0.0 0.0 0.0 0.0 0.0 0.0 0.0 0.0 0.0 0.0 0.0
2.9 5.7 1.9 1.8 8.5 6.9 2.9 0.8 1.2 0.7 0.0 0.0 0.1 0.1 0.2 0.2 0.1 0.1 0.2 0.2 0.2 0.1 0.2 0.0 0.0 0.0 0.0 0.0 0.0 0.0 0.0 0.0
5.6 4.9 2.8 1.8 4.2 7.5 6.2 4.1 4.6 4.4 1.7 0.6 0.2 0.9 0.2 0.2 0.3 0.8 1.2 0.9 0.8 0.2 0.2 0.1 0.3 0.6 0.0 0.3 0.2 0.2 0.1 0.0
7.6 3.9 3.9 2.7 3.0 3.4 6.4 6.6 8.1 8.5 7.1 5.3 1.7 2.3 2.2 1.4 1.8 1.6 1.9 2.0 0.6 0.4 0.2 0.5 1.5 2.5 1.3 1.6 1.3 0.6 1.7 1.4
9.2 8.8 4.2 5.3 3.5 6.3 5.9 6.1 4.4 5.8 10.4 11.8 4.0 5.1 3.9 4.8 5.8 4.5 4.5 3.9 2.8 2.0 0.7 1.6 1.6 2.2 1.4 4.0 3.2 1.0 3.5 3.4
7.3 6.3 5.9 3.7 2.5 4.1 2.4 1.7 2.5 3.7 4.0 8.7 9.7 9.5 11.3 9.2 7.7 9.5 10.6 8.1 7.0 5.5 5.3 3.9 2.7 1.7 1.1 1.9 2.3 1.9 1.6 3.2
2.4 3.8 4.6 3.7 2.0 1.4 0.7 0.2 0.0 0.1 0.2 0.2 3.0 10.5 10.7 10.9 10.9 15.7 12.4 15.3 15.1 9.9 9.8 5.5 4.0 3.6 4.3 3.1 3.9 2.4 0.7 0.3
0.5 0.3 0.8 1.5 0.6 0.2 0.0 0.0 0.0 0.0 0.0 0.0 0.0 0.0 0.3 3.6 4.9 5.8 5.1 10.3 13.8 9.5 11.1 6.5 6.9 5.0 6.5 5.2 5.7 7.2 7.2 5.2
5.7 2.8 3.1 0.4 1.2 0.0 0.7 0.0 0.0 0.0 0.0 0.0 0.0 0.0 0.0 0.5 0.3 0.1 2.1 1.6 2.1 2.8 4.0 2.5 2.3 2.9 2.8 2.1 4.1 6.3 6.8 7.2
3.9 7.3 5.5 3.4 2.3 1.8 1.3 0.9 0.9 0.0 0.0 0.0 0.0 0.1 1.0 0.8 0.0 0.0 1.2 1.0 0.4 2.0 1.9 1.3 0.8 0.4 1.4 1.0 1.0 2.3 4.6 5.0

GFSFLT1_prec_kuchsnow_276.txt.gz
Snowfall_Accumulation
0.0 0.0 0.0 0.0 0.0 0.0 0.0 0.0 0.0 0.0 0.0 0.0 0.0 0.0 0.0 0.0 0.0 0.0 0.0 0.0 0.0 0.0 0.0 0.0 0.0 0.0 0.0 0.0 0.0 0.0 0.0 0.0
0.0 0.0 0.0 0.0 0.0 0.0 0.0 0.0 0.0 0.0 0.0 0.0 0.0 0.0 0.0 0.0 0.0 0.0 0.0 0.0 0.0 0.0 0.0 0.0 0.0 0.0 0.0 0.0 0.0 0.0 0.0 0.0
0.0 0.0 0.0 0.0 0.0 0.0 0.0 0.0 0.0 0.0 0.0 0.0 0.0 0.0 0.0 0.0 0.0 0.0 0.0 0.0 0.0 0.0 0.0 0.0 0.0 0.0 0.0 0.0 0.0 0.0 0.0 0.0
0.0 0.0 0.0 0.0 0.0 0.0 0.0 0.0 0.0 0.0 0.0 0.0 0.0 0.0 0.0 0.0 0.0 0.0 0.0 0.0 0.0 0.0 0.0 0.0 0.0 0.0 0.0 0.0 0.0 0.0 0.0 0.0
0.0 0.0 0.0 0.0 0.0 0.0 0.0 0.0 0.0 0.0 0.0 0.0 0.0 0.0 0.0 0.0 0.0 0.0 0.0 0.0 0.0 0.0 0.0 0.0 0.0 0.0 0.0 0.0 0.0 0.0 0.0 0.0
0.0 0.0 0.0 0.0 0.0 0.0 0.0 0.0 0.0 0.0 0.0 0.0 0.0 0.0 0.0 0.0 0.0 0.0 0.0 0.0 0.0 0.0 0.0 0.0 0.0 0.0 0.0 0.0 0.0 0.0 0.0 0.0
0.0 0.0 0.0 0.0 0.0 0.0 0.0 0.0 0.0 0.0 0.0 0.0 0.0 0.0 0.0 0.0 0.0 0.0 0.0 0.0 0.0 0.0 0.0 0.0 0.0 0.0 0.0 0.0 0.0 0.0 0.0 0.1
0.2 0.0 0.8 0.5 0.1 0.1 0.0 0.0 0.0 0.0 0.0 0.0 0.0 0.0 0.0 0.1 0.1 0.0 0.0 0.0 0.0 0.0 0.0 0.0 0.0 0.0 0.0 0.0 0.0 0.0 0.0 0.0
1.3 4.0 1.6 1.0 0.6 0.6 0.6 0.0 0.1 0.0 0.0 0.0 0.0 0.0 0.1 0.1 0.1 0.1 0.1 0.0 0.0 0.0 0.0 0.0 0.0 0.0 0.0 0.0 0.0 0.0 0.0 0.1
3.4 3.7 1.5 0.8 4.7 7.3 2.4 1.6 0.2 0.1 0.0 0.0 0.1 0.0 0.0 0.1 0.1 0.0 0.1 0.1 0.0 0.0 0.0 0.0 0.0 0.0 0.0 0.0 0.0 0.0 0.0 0.0
2.9 5.7 1.9 1.8 8.5 6.9 2.9 0.8 1.2 0.7 0.0 0.0 0.1 0.1 0.2 0.2 0.1 0.1 0.2 0.2 0.2 0.1 0.2 0.0 0.0 0.0 0.0 0.0 0.0 0.0 0.0 0.0
5.6 4.9 2.8 1.8 4.2 7.5 6.2 4.1 4.6 4.4 1.7 0.6 0.2 0.9 0.2 0.2 0.3 0.8 1.2 0.9 0.8 0.2 0.2 0.1 0.3 0.6 0.0 0.3 0.2 0.2 0.1 0.0
7.6 3.9 3.9 2.7 3.0 3.4 6.4 6.6 8.1 8.5 7.1 5.3 1.7 2.3 2.2 1.4 1.8 1.6 1.9 2.0 0.6 0.4 0.2 0.5 1.5 2.5 1.4 1.6 1.3 0.6 1.7 1.4
9.2 8.8 4.2 5.3 3.5 6.3 5.9 6.1 4.4 5.8 10.4 11.8 4.0 5.1 3.9 4.8 5.8 4.5 4.5 3.9 2.8 2.0 0.7 1.6 1.6 2.2 1.4 4.0 3.2 1.0 3.5 3.4
7.3 6.3 5.9 3.7 2.5 4.1 2.4 1.7 2.5 3.7 4.0 8.7 9.7 9.5 11.3 9.2 7.7 9.5 10.6 8.1 7.0 5.5 5.3 3.9 2.7 1.8 1.1 1.9 2.3 1.9 1.6 3.2
2.4 3.8 4.6 3.7 2.0 1.4 0.7 0.2 0.0 0.1 0.2 0.2 3.0 10.5 10.7 10.9 10.9 15.7 12.4 15.3 15.1 9.9 9.8 5.5 4.0 3.6 4.3 3.1 3.9 2.4 0.7 0.3
0.5 0.3 0.8 1.5 0.6 0.2 0.0 0.0 0.0 0.0 0.0 0.0 0.0 0.0 0.3 3.6 4.9 5.8 5.1 10.3 13.8 9.5 11.1 6.5 6.9 5.0 6.5 5.2 5.7 7.2 7.2 5.2
5.7 2.8 3.1 0.4 1.2 0.0 0.7 0.0 0.0 0.0 0.0 0.0 0.0 0.0 0.0 0.5 0.3 0.1 2.1 1.6 2.1 2.8 4.0 2.5 2.4 2.9 2.8 2.1 4.1 6.3 6.9 7.2
3.9 7.3 5.5 3.4 2.3 1.8 1.3 0.9 0.9 0.0 0.0 0.0 0.0 0.1 1.0 0.8 0.0 0.0 1.2 1.0 0.4 2.0 1.9 1.3 0.8 0.4 1.4 1.0 1.0 2.3 4.6 5.0

GFSFLT1_prec_kuchsnow_279.txt.gz
Snowfall_Accumulation
0.0 0.0 0.0 0.0 0.0 0.0 0.0 0.0 0.0 0.0 0.0 0.0 0.0 0.0 0.0 0.0 0.0 0.0 0.0 0.0 0.0 0.0 0.0 0.0 0.0 0.0 0.0 0.0 0.0 0.0 0.0 0.0
0.0 0.0 0.0 0.0 0.0 0.0 0.0 0.0 0.0 0.0 0.0 0.0 0.0 0.0 0.0 0.0 0.0 0.0 0.0 0.0 0.0 0.0 0.0 0.0 0.0 0.0 0.0 0.0 0.0 0.0 0.0 0.0
0.0 0.0 0.0 0.0 0.0 0.0 0.0 0.0 0.0 0.0 0.0 0.0 0.0 0.0 0.0 0.0 0.0 0.0 0.0 0.0 0.0 0.0 0.0 0.0 0.0 0.0 0.0 0.0 0.0 0.0 0.0 0.0
0.0 0.0 0.0 0.0 0.0 0.0 0.0 0.0 0.0 0.0 0.0 0.0 0.0 0.0 0.0 0.0 0.0 0.0 0.0 0.0 0.0 0.0 0.0 0.0 0.0 0.0 0.0 0.0 0.0 0.0 0.0 0.0
0.0 0.0 0.0 0.0 0.0 0.0 0.0 0.0 0.0 0.0 0.0 0.0 0.0 0.0 0.0 0.0 0.0 0.0 0.0 0.0 0.0 0.0 0.0 0.0 0.0 0.0 0.0 0.0 0.0 0.0 0.0 0.0
0.0 0.0 0.0 0.0 0.0 0.0 0.0 0.0 0.0 0.0 0.0 0.0 0.0 0.0 0.0 0.0 0.0 0.0 0.0 0.0 0.0 0.0 0.0 0.0 0.0 0.0 0.0 0.0 0.0 0.0 0.0 0.0
0.0 0.0 0.0 0.0 0.0 0.0 0.0 0.0 0.0 0.0 0.0 0.0 0.0 0.0 0.0 0.0 0.0 0.0 0.0 0.0 0.0 0.0 0.0 0.0 0.0 0.0 0.0 0.0 0.0 0.0 0.0 0.1
0.2 0.0 0.8 0.5 0.1 0.1 0.0 0.0 0.0 0.0 0.0 0.0 0.0 0.0 0.0 0.1 0.1 0.0 0.0 0.0 0.0 0.0 0.0 0.0 0.0 0.0 0.0 0.0 0.0 0.0 0.0 0.0
1.3 4.0 1.6 1.0 0.6 0.6 0.6 0.0 0.1 0.0 0.0 0.0 0.0 0.0 0.1 0.1 0.1 0.1 0.1 0.0 0.0 0.0 0.0 0.0 0.0 0.0 0.0 0.0 0.0 0.0 0.0 0.1
3.4 3.7 1.5 0.8 4.7 7.3 2.4 1.6 0.2 0.1 0.0 0.0 0.1 0.0 0.0 0.1 0.1 0.0 0.1 0.1 0.0 0.0 0.0 0.0 0.0 0.0 0.0 0.0 0.0 0.0 0.0 0.0
2.9 5.7 1.9 1.8 8.5 6.9 2.9 0.8 1.2 0.7 0.0 0.0 0.1 0.1 0.2 0.2 0.1 0.1 0.2 0.2 0.2 0.1 0.2 0.0 0.0 0.0 0.0 0.0 0.0 0.0 0.0 0.0
5.6 4.9 2.8 1.8 4.2 7.5 6.2 4.1 4.6 4.4 1.7 0.6 0.2 0.9 0.2 0.2 0.3 0.8 1.2 0.9 0.8 0.2 0.2 0.1 0.3 0.6 0.0 0.3 0.2 0.2 0.1 0.0
7.6 3.9 3.9 2.7 3.0 3.4 6.4 6.6 8.1 8.5 7.1 5.3 1.7 2.3 2.2 1.4 1.8 1.6 1.9 2.0 0.6 0.4 0.2 0.5 1.5 2.5 1.4 1.6 1.3 0.6 1.7 1.4
9.2 8.8 4.2 5.3 3.5 6.3 5.9 6.1 4.4 5.8 10.4 11.8 4.0 5.1 3.9 4.8 5.8 4.5 4.5 3.9 2.8 2.0 0.7 1.6 1.6 2.3 1.4 4.0 3.2 1.0 3.5 3.5
7.3 6.3 5.9 3.7 2.5 4.1 2.4 1.7 2.5 3.7 4.0 8.7 9.7 9.5 11.3 9.2 7.7 9.5 10.6 8.1 7.0 5.5 5.3 3.9 2.7 1.9 1.1 1.9 2.3 1.9 1.6 3.2
2.4 3.8 4.6 3.7 2.0 1.4 0.7 0.2 0.0 0.1 0.2 0.2 3.0 10.5 10.7 10.9 10.9 15.7 12.4 15.3 15.1 9.9 9.8 5.5 4.0 3.6 4.3 3.2 3.9 2.4 0.8 0.3
0.5 0.3 0.8 1.5 0.6 0.2 0.0 0.0 0.0 0.0 0.0 0.0 0.0 0.0 0.3 3.6 4.9 5.8 5.1 10.3 13.8 9.5 11.1 6.5 6.9 5.0 6.6 5.3 5.7 7.2 7.2 5.2
5.7 2.8 3.1 0.4 1.2 0.0 0.7 0.0 0.0 0.0 0.0 0.0 0.0 0.0 0.0 0.5 0.3 0.1 2.1 1.6 2.1 2.8 4.0 2.5 2.4 2.9 2.8 2.2 4.2 6.3 6.9 7.2
3.9 7.3 5.5 3.4 2.3 1.8 1.3 0.9 0.9 0.0 0.0 0.0 0.0 0.1 1.0 0.8 0.0 0.0 1.2 1.0 0.4 2.0 1.9 1.3 0.8 0.4 1.5 1.1 1.0 2.3 4.6 5.0

GFSFLT1_prec_kuchsnow_282.txt.gz
Snowfall_Accumulation
0.0 0.0 0.0 0.0 0.0 0.0 0.0 0.0 0.0 0.0 0.0 0.0 0.0 0.0 0.0 0.0 0.0 0.0 0.0 0.0 0.0 0.0 0.0 0.0 0.0 0.0 0.0 0.0 0.0 0.0 0.0 0.0
0.0 0.0 0.0 0.0 0.0 0.0 0.0 0.0 0.0 0.0 0.0 0.0 0.0 0.0 0.0 0.0 0.0 0.0 0.0 0.0 0.0 0.0 0.0 0.0 0.0 0.0 0.0 0.0 0.0 0.0 0.0 0.0
0.0 0.0 0.0 0.0 0.0 0.0 0.0 0.0 0.0 0.0 0.0 0.0 0.0 0.0 0.0 0.0 0.0 0.0 0.0 0.0 0.0 0.0 0.0 0.0 0.0 0.0 0.0 0.0 0.0 0.0 0.0 0.0
0.0 0.0 0.0 0.0 0.0 0.0 0.0 0.0 0.0 0.0 0.0 0.0 0.0 0.0 0.0 0.0 0.0 0.0 0.0 0.0 0.0 0.0 0.0 0.0 0.0 0.0 0.0 0.0 0.0 0.0 0.0 0.0
0.0 0.0 0.0 0.0 0.0 0.0 0.0 0.0 0.0 0.0 0.0 0.0 0.0 0.0 0.0 0.0 0.0 0.0 0.0 0.0 0.0 0.0 0.0 0.0 0.0 0.0 0.0 0.0 0.0 0.0 0.0 0.0
0.0 0.0 0.0 0.0 0.0 0.0 0.0 0.0 0.0 0.0 0.0 0.0 0.0 0.0 0.0 0.0 0.0 0.0 0.0 0.0 0.0 0.0 0.0 0.0 0.0 0.0 0.0 0.0 0.0 0.0 0.0 0.0
0.0 0.0 0.0 0.0 0.0 0.0 0.0 0.0 0.0 0.0 0.0 0.0 0.0 0.0 0.0 0.0 0.0 0.0 0.0 0.0 0.0 0.0 0.0 0.0 0.0 0.0 0.0 0.0 0.0 0.0 0.0 0.1
0.2 0.0 0.8 0.5 0.1 0.1 0.0 0.0 0.0 0.0 0.0 0.0 0.0 0.0 0.0 0.1 0.1 0.0 0.0 0.0 0.0 0.0 0.0 0.0 0.0 0.0 0.0 0.0 0.0 0.0 0.0 0.0
1.3 4.0 1.6 1.0 0.6 0.6 0.6 0.0 0.1 0.0 0.0 0.0 0.0 0.0 0.1 0.1 0.1 0.1 0.1 0.0 0.0 0.0 0.0 0.0 0.0 0.0 0.0 0.0 0.0 0.0 0.0 0.1
3.4 3.7 1.5 0.8 4.7 7.3 2.4 1.6 0.2 0.1 0.0 0.0 0.1 0.0 0.0 0.1 0.1 0.0 0.1 0.1 0.0 0.0 0.0 0.0 0.0 0.0 0.0 0.0 0.0 0.0 0.0 0.0
2.9 5.7 1.9 1.8 8.5 6.9 2.9 0.8 1.2 0.7 0.0 0.0 0.1 0.1 0.2 0.2 0.1 0.1 0.2 0.2 0.2 0.1 0.2 0.0 0.0 0.0 0.0 0.0 0.0 0.0 0.0 0.0
5.6 4.9 2.8 1.8 4.2 7.5 6.2 4.1 4.6 4.4 1.7 0.6 0.2 0.9 0.2 0.2 0.3 0.8 1.2 0.9 0.8 0.2 0.2 0.1 0.3 0.7 0.0 0.3 0.2 0.2 0.1 0.0
7.6 3.9 3.9 2.7 3.0 3.4 6.4 6.6 8.1 8.5 7.1 5.3 1.7 2.3 2.2 1.4 1.8 1.6 1.9 2.0 0.6 0.4 0.2 0.5 1.5 2.5 1.4 1.6 1.3 0.6 1.7 1.5
9.2 8.8 4.2 5.3 3.5 6.3 5.9 6.1 4.4 5.8 10.4 11.8 4.0 5.1 3.9 4.8 5.8 4.5 4.5 3.9 2.8 2.0 0.7 1.6 1.6 2.3 1.4 4.0 3.3 1.0 3.5 3.5
7.3 6.3 5.9 3.7 2.5 4.1 2.4 1.7 2.5 3.7 4.0 8.7 9.7 9.5 11.3 9.2 7.7 9.5 10.6 8.1 7.0 5.5 5.3 3.9 2.7 1.9 1.1 2.0 2.3 1.9 1.6 3.2
2.4 3.8 4.6 3.7 2.0 1.4 0.7 0.2 0.0 0.1 0.2 0.2 3.0 10.5 10.7 10.9 10.9 15.7 12.4 15.3 15.1 9.9 9.8 5.5 4.0 3.6 4.4 3.2 3.9 2.4 0.8 0.3
0.5 0.3 0.8 1.5 0.6 0.2 0.0 0.0 0.0 0.0 0.0 0.0 0.0 0.0 0.3 3.6 4.9 5.8 5.1 10.3 13.8 9.5 11.1 6.5 6.9 5.0 6.6 5.3 5.7 7.2 7.2 5.3
5.7 2.8 3.1 0.4 1.2 0.0 0.7 0.0 0.0 0.0 0.0 0.0 0.0 0.0 0.0 0.5 0.3 0.1 2.1 1.6 2.1 2.8 4.0 2.5 2.4 2.9 2.9 2.2 4.2 6.3 6.9 7.2
3.9 7.3 5.5 3.4 2.3 1.8 1.3 0.9 0.9 0.0 0.0 0.0 0.0 0.1 1.0 0.8 0.0 0.0 1.2 1.0 0.4 2.0 1.9 1.3 0.8 0.4 1.5 1.1 1.0 2.3 4.6 5.0

GFSFLT1_prec_kuchsnow_285.txt.gz
Snowfall_Accumulation
0.0 0.0 0.0 0.0 0.0 0.0 0.0 0.0 0.0 0.0 0.0 0.0 0.0 0.0 0.0 0.0 0.0 0.0 0.0 0.0 0.0 0.0 0.0 0.0 0.0 0.0 0.0 0.0 0.0 0.0 0.0 0.0
0.0 0.0 0.0 0.0 0.0 0.0 0.0 0.0 0.0 0.0 0.0 0.0 0.0 0.0 0.0 0.0 0.0 0.0 0.0 0.0 0.0 0.0 0.0 0.0 0.0 0.0 0.0 0.0 0.0 0.0 0.0 0.0
0.0 0.0 0.0 0.0 0.0 0.0 0.0 0.0 0.0 0.0 0.0 0.0 0.0 0.0 0.0 0.0 0.0 0.0 0.0 0.0 0.0 0.0 0.0 0.0 0.0 0.0 0.0 0.0 0.0 0.0 0.0 0.0
0.0 0.0 0.0 0.0 0.0 0.0 0.0 0.0 0.0 0.0 0.0 0.0 0.0 0.0 0.0 0.0 0.0 0.0 0.0 0.0 0.0 0.0 0.0 0.0 0.0 0.0 0.0 0.0 0.0 0.0 0.0 0.0
0.0 0.0 0.0 0.0 0.0 0.0 0.0 0.0 0.0 0.0 0.0 0.0 0.0 0.0 0.0 0.0 0.0 0.0 0.0 0.0 0.0 0.0 0.0 0.0 0.0 0.0 0.0 0.0 0.0 0.0 0.0 0.0
0.0 0.0 0.0 0.0 0.0 0.0 0.0 0.0 0.0 0.0 0.0 0.0 0.0 0.0 0.0 0.0 0.0 0.0 0.0 0.0 0.0 0.0 0.0 0.0 0.0 0.0 0.0 0.0 0.0 0.0 0.0 0.1
0.0 0.0 0.0 0.0 0.0 0.0 0.0 0.0 0.0 0.0 0.0 0.0 0.0 0.0 0.0 0.0 0.0 0.0 0.0 0.0 0.0 0.0 0.0 0.0 0.0 0.0 0.0 0.0 0.0 0.0 0.0 0.1
0.2 0.0 0.8 0.5 0.1 0.1 0.0 0.0 0.0 0.0 0.0 0.0 0.0 0.0 0.0 0.1 0.1 0.0 0.0 0.0 0.0 0.0 0.0 0.0 0.0 0.0 0.0 0.0 0.0 0.0 0.0 0.0
1.3 4.0 1.6 1.0 0.6 0.6 0.6 0.0 0.1 0.0 0.0 0.0 0.0 0.0 0.1 0.1 0.1 0.1 0.1 0.0 0.0 0.0 0.0 0.0 0.0 0.0 0.0 0.0 0.0 0.0 0.0 0.1
3.4 3.7 1.5 0.8 4.7 7.3 2.4 1.6 0.2 0.1 0.0 0.0 0.1 0.0 0.0 0.1 0.1 0.0 0.1 0.1 0.0 0.0 0.0 0.0 0.0 0.0 0.0 0.0 0.0 0.0 0.0 0.0
2.9 5.7 1.9 1.8 8.5 6.9 2.9 0.8 1.2 0.7 0.0 0.0 0.1 0.1 0.2 0.2 0.1 0.1 0.2 0.2 0.2 0.1 0.2 0.0 0.0 0.0 0.0 0.0 0.0 0.0 0.0 0.0
5.6 4.9 2.8 1.8 4.2 7.5 6.2 4.1 4.6 4.4 1.7 0.6 0.2 0.9 0.2 0.2 0.3 0.8 1.2 0.9 0.8 0.2 0.2 0.1 0.3 0.7 0.0 0.3 0.3 0.2 0.1 0.0
7.6 3.9 3.9 2.7 3.0 3.4 6.4 6.6 8.1 8.5 7.1 5.3 1.7 2.3 2.2 1.4 1.8 1.6 1.9 2.0 0.6 0.4 0.2 0.5 1.5 2.5 1.4 1.6 1.3 0.6 1.7 1.5
9.2 8.8 4.2 5.3 3.5 6.3 5.9 6.1 4.4 5.8 10.4 11.8 4.0 5.1 3.9 4.8 5.8 4.5 4.5 3.9 2.8 2.0 0.7 1.6 1.6 2.4 1.5 4.0 3.3 1.0 3.5 3.5
7.3 6.3 5.9 3.7 2.5 4.1 2.4 1.7 2.5 3.7 4.0 8.7 9.7 9.5 11.3 9.2 7.7 9.5 10.6 8.1 7.0 5.5 5.3 3.9 2.7 1.9 1.2 2.0 2.3 1.9 1.6 3.2
2.4 3.8 4.6 3.7 2.0 1.4 0.7 0.2 0.0 0.1 0.2 0.2 3.0 10.5 10.7 10.9 10.9 15.7 12.4 15.3 15.1 9.9 9.8 5.5 4.0 3.6 4.4 3.2 3.9 2.4 0.8 0.3
0.5 0.3 0.8 1.5 0.6 0.2 0.0 0.0 0.0 0.0 0.0 0.0 0.0 0.0 0.3 3.6 4.9 5.8 5.1 10.3 13.8 9.5 11.1 6.5 6.9 5.1 6.7 5.3 5.7 7.3 7.3 5.3
5.7 2.8 3.1 0.4 1.2 0.0 0.7 0.0 0.0 0.0 0.0 0.0 0.0 0.0 0.0 0.5 0.3 0.1 2.1 1.6 2.1 2.8 4.0 2.5 2.4 2.9 2.9 2.2 4.2 6.3 6.9 7.3
3.9 7.3 5.5 3.4 2.3 1.8 1.3 0.9 0.9 0.0 0.0 0.0 0.0 0.1 1.0 0.8 0.0 0.0 1.2 1.0 0.4 2.0 1.9 1.3 0.8 0.4 1.6 1.1 1.0 2.3 4.6 5.0

GFSFLT1_prec_kuchsnow_288.txt.gz
Snowfall_Accumulation
0.0 0.0 0.0 0.0 0.0 0.0 0.0 0.0 0.0 0.0 0.0 0.0 0.0 0.0 0.0 0.0 0.0 0.0 0.0 0.0 0.0 0.0 0.0 0.0 0.0 0.0 0.0 0.0 0.0 0.0 0.0 0.0
0.0 0.0 0.0 0.0 0.0 0.0 0.0 0.0 0.0 0.0 0.0 0.0 0.0 0.0 0.0 0.0 0.0 0.0 0.0 0.0 0.0 0.0 0.0 0.0 0.0 0.0 0.0 0.0 0.0 0.0 0.0 0.0
0.0 0.0 0.0 0.0 0.0 0.0 0.0 0.0 0.0 0.0 0.0 0.0 0.0 0.0 0.0 0.0 0.0 0.0 0.0 0.0 0.0 0.0 0.0 0.0 0.0 0.0 0.0 0.0 0.0 0.0 0.0 0.0
0.0 0.0 0.0 0.0 0.0 0.0 0.0 0.0 0.0 0.0 0.0 0.0 0.0 0.0 0.0 0.0 0.0 0.0 0.0 0.0 0.0 0.0 0.0 0.0 0.0 0.0 0.0 0.0 0.0 0.0 0.0 0.0
0.0 0.0 0.0 0.0 0.0 0.0 0.0 0.0 0.0 0.0 0.0 0.0 0.0 0.0 0.0 0.0 0.0 0.0 0.0 0.0 0.0 0.0 0.0 0.0 0.0 0.0 0.0 0.0 0.0 0.0 0.0 0.0
0.0 0.0 0.0 0.0 0.0 0.0 0.0 0.0 0.0 0.0 0.0 0.0 0.0 0.0 0.0 0.0 0.0 0.0 0.0 0.0 0.0 0.0 0.0 0.0 0.0 0.0 0.0 0.0 0.0 0.0 0.0 0.1
0.0 0.0 0.0 0.0 0.0 0.0 0.0 0.0 0.0 0.0 0.0 0.0 0.0 0.0 0.0 0.0 0.0 0.0 0.0 0.0 0.0 0.0 0.0 0.0 0.0 0.0 0.0 0.0 0.0 0.0 0.0 0.1
0.2 0.0 0.8 0.5 0.1 0.1 0.0 0.0 0.0 0.0 0.0 0.0 0.0 0.0 0.0 0.1 0.1 0.0 0.0 0.0 0.0 0.0 0.0 0.0 0.0 0.0 0.0 0.0 0.0 0.0 0.0 0.0
1.3 4.0 1.6 1.0 0.6 0.6 0.6 0.0 0.1 0.0 0.0 0.0 0.0 0.0 0.1 0.1 0.1 0.1 0.1 0.0 0.0 0.0 0.0 0.0 0.0 0.0 0.0 0.0 0.0 0.0 0.0 0.1
3.4 3.7 1.5 0.8 4.7 7.3 2.4 1.6 0.2 0.1 0.0 0.0 0.1 0.0 0.0 0.1 0.1 0.0 0.1 0.1 0.0 0.0 0.0 0.0 0.0 0.0 0.0 0.0 0.0 0.0 0.0 0.0
2.9 5.7 1.9 1.8 8.5 6.9 2.9 0.8 1.2 0.7 0.0 0.0 0.1 0.1 0.2 0.2 0.1 0.1 0.2 0.2 0.2 0.1 0.2 0.0 0.0 0.0 0.0 0.0 0.0 0.0 0.0 0.0
5.6 4.9 2.8 1.8 4.2 7.5 6.2 4.1 4.6 4.4 1.7 0.6 0.2 0.9 0.2 0.2 0.3 0.8 1.2 0.9 0.8 0.2 0.2 0.1 0.3 0.7 0.0 0.3 0.3 0.2 0.1 0.0
7.6 3.9 3.9 2.7 3.0 3.4 6.4 6.6 8.1 8.5 7.1 5.3 1.7 2.3 2.2 1.4 1.8 1.6 1.9 2.0 0.6 0.4 0.2 0.5 1.5 2.5 1.4 1.6 1.3 0.6 1.7 1.5
9.2 8.8 4.2 5.3 3.5 6.3 5.9 6.1 4.4 5.8 10.4 11.8 4.0 5.1 3.9 4.8 5.8 4.5 4.5 3.9 2.8 2.0 0.7 1.6 1.6 2.4 1.5 4.0 3.3 1.0 3.5 3.5
7.3 6.3 5.9 3.7 2.5 4.1 2.4 1.7 2.5 3.7 4.0 8.7 9.7 9.5 11.3 9.2 7.7 9.5 10.6 8.1 7.0 5.5 5.3 3.9 2.7 1.9 1.2 2.0 2.3 2.0 1.6 3.2
2.4 3.8 4.6 3.7 2.0 1.4 0.7 0.2 0.0 0.1 0.2 0.2 3.0 10.5 10.7 10.9 10.9 15.7 12.4 15.3 15.1 9.9 9.8 5.5 4.0 3.7 4.4 3.3 3.9 2.4 0.8 0.3
0.5 0.3 0.8 1.5 0.6 0.2 0.0 0.0 0.0 0.0 0.0 0.0 0.0 0.0 0.3 3.6 4.9 5.8 5.1 10.3 13.8 9.5 11.1 6.5 6.9 5.1 6.7 5.3 5.7 7.3 7.3 5.3
5.7 2.8 3.1 0.4 1.2 0.0 0.7 0.0 0.0 0.0 0.0 0.0 0.0 0.0 0.0 0.5 0.3 0.1 2.1 1.6 2.1 2.8 4.0 2.5 2.4 2.9 3.0 2.2 4.2 6.3 6.9 7.3
3.9 7.3 5.5 3.4 2.3 1.8 1.3 0.9 0.9 0.0 0.0 0.0 0.0 0.1 1.0 0.8 0.0 0.0 1.2 1.0 0.4 2.0 1.9 1.3 0.8 0.4 1.6 1.1 1.0 2.3 4.6 5.0

GFSFLT1_prec_kuchsnow_291.txt.gz
Snowfall_Accumulation
0.0 0.0 0.0 0.0 0.0 0.0 0.0 0.0 0.0 0.0 0.0 0.0 0.0 0.0 0.0 0.0 0.0 0.0 0.0 0.0 0.0 0.0 0.0 0.0 0.0 0.0 0.0 0.0 0.0 0.0 0.0 0.0
0.0 0.0 0.0 0.0 0.0 0.0 0.0 0.0 0.0 0.0 0.0 0.0 0.0 0.0 0.0 0.0 0.0 0.0 0.0 0.0 0.0 0.0 0.0 0.0 0.0 0.0 0.0 0.0 0.0 0.0 0.0 0.0
0.0 0.0 0.0 0.0 0.0 0.0 0.0 0.0 0.0 0.0 0.0 0.0 0.0 0.0 0.0 0.0 0.0 0.0 0.0 0.0 0.0 0.0 0.0 0.0 0.0 0.0 0.0 0.0 0.0 0.0 0.0 0.0
0.0 0.0 0.0 0.0 0.0 0.0 0.0 0.0 0.0 0.0 0.0 0.0 0.0 0.0 0.0 0.0 0.0 0.0 0.0 0.0 0.0 0.0 0.0 0.0 0.0 0.0 0.0 0.0 0.0 0.0 0.1 0.0
0.0 0.0 0.0 0.0 0.0 0.0 0.0 0.0 0.0 0.0 0.0 0.0 0.0 0.0 0.0 0.0 0.0 0.0 0.0 0.0 0.0 0.0 0.0 0.0 0.0 0.0 0.0 0.0 0.0 0.0 0.0 0.1
0.0 0.0 0.0 0.0 0.0 0.0 0.0 0.0 0.0 0.0 0.0 0.0 0.0 0.0 0.0 0.0 0.0 0.0 0.0 0.0 0.0 0.0 0.0 0.0 0.0 0.0 0.0 0.0 0.0 0.0 0.0 0.1
0.0 0.0 0.0 0.0 0.0 0.0 0.0 0.0 0.0 0.0 0.0 0.0 0.0 0.0 0.0 0.0 0.0 0.0 0.0 0.0 0.0 0.0 0.0 0.0 0.0 0.0 0.0 0.0 0.0 0.0 0.0 0.1
0.2 0.0 0.8 0.5 0.1 0.1 0.0 0.0 0.0 0.0 0.0 0.0 0.0 0.0 0.0 0.1 0.1 0.0 0.0 0.0 0.0 0.0 0.0 0.0 0.0 0.0 0.0 0.0 0.0 0.0 0.0 0.0
1.3 4.0 1.6 1.0 0.6 0.6 0.6 0.0 0.1 0.0 0.0 0.0 0.0 0.0 0.1 0.1 0.1 0.1 0.1 0.0 0.0 0.0 0.0 0.0 0.0 0.0 0.0 0.0 0.0 0.0 0.0 0.1
3.4 3.7 1.5 0.8 4.7 7.3 2.4 1.6 0.2 0.1 0.0 0.0 0.1 0.0 0.0 0.1 0.1 0.0 0.1 0.1 0.0 0.0 0.0 0.0 0.0 0.0 0.0 0.0 0.0 0.0 0.0 0.0
2.9 5.7 1.9 1.8 8.5 6.9 2.9 0.8 1.2 0.7 0.0 0.0 0.1 0.1 0.2 0.2 0.1 0.1 0.2 0.2 0.2 0.1 0.2 0.0 0.0 0.0 0.0 0.0 0.0 0.0 0.0 0.0
5.6 4.9 2.8 1.8 4.2 7.5 6.2 4.1 4.6 4.4 1.7 0.6 0.2 0.9 0.2 0.2 0.3 0.8 1.2 0.9 0.8 0.2 0.2 0.1 0.3 0.7 0.0 0.3 0.3 0.2 0.1 0.0
7.6 3.9 3.9 2.7 3.0 3.4 6.4 6.6 8.1 8.5 7.1 5.3 1.7 2.3 2.2 1.4 1.8 1.6 1.9 2.0 0.6 0.4 0.2 0.5 1.5 2.5 1.4 1.6 1.3 0.6 1.7 1.5
9.2 8.8 4.2 5.3 3.5 6.3 5.9 6.1 4.4 5.8 10.4 11.8 4.0 5.1 3.9 4.8 5.8 4.5 4.5 3.9 2.8 2.0 0.7 1.6 1.6 2.4 1.5 4.0 3.3 1.0 3.5 3.5
7.3 6.3 5.9 3.7 2.5 4.1 2.4 1.7 2.5 3.7 4.0 8.7 9.7 9.5 11.3 9.2 7.7 9.5 10.6 8.1 7.0 5.5 5.3 3.9 2.7 1.9 1.2 2.0 2.3 2.0 1.6 3.2
2.4 3.8 4.6 3.7 2.0 1.4 0.7 0.2 0.0 0.1 0.2 0.2 3.0 10.5 10.7 10.9 10.9 15.7 12.4 15.3 15.1 9.9 9.8 5.5 4.0 3.7 4.4 3.3 3.9 2.4 0.8 0.4
0.5 0.3 0.8 1.5 0.6 0.2 0.0 0.0 0.0 0.0 0.0 0.0 0.0 0.0 0.3 3.6 4.9 5.8 5.1 10.3 13.8 9.5 11.1 6.5 6.9 5.1 6.7 5.3 5.7 7.3 7.3 5.3
5.7 2.8 3.1 0.4 1.2 0.0 0.7 0.0 0.0 0.0 0.0 0.0 0.0 0.0 0.0 0.5 0.3 0.1 2.1 1.6 2.1 2.8 4.0 2.5 2.4 2.9 3.0 2.2 4.2 6.3 6.9 7.3
3.9 7.3 5.5 3.4 2.3 1.8 1.3 0.9 0.9 0.0 0.0 0.0 0.0 0.1 1.0 0.8 0.0 0.0 1.2 1.0 0.4 2.0 1.9 1.3 0.8 0.4 1.6 1.1 1.0 2.3 4.6 5.0

GFSFLT1_prec_kuchsnow_294.txt.gz
Snowfall_Accumulation
0.0 0.0 0.0 0.0 0.0 0.0 0.0 0.0 0.0 0.0 0.0 0.0 0.0 0.0 0.0 0.0 0.0 0.0 0.0 0.0 0.0 0.0 0.0 0.0 0.0 0.0 0.0 0.0 0.0 0.0 0.0 0.0
0.0 0.0 0.0 0.0 0.0 0.0 0.0 0.0 0.0 0.0 0.0 0.0 0.0 0.0 0.0 0.0 0.0 0.0 0.0 0.0 0.0 0.0 0.0 0.0 0.0 0.0 0.0 0.0 0.0 0.0 0.0 0.0
0.0 0.0 0.0 0.0 0.0 0.0 0.0 0.0 0.0 0.0 0.0 0.0 0.0 0.0 0.0 0.0 0.0 0.0 0.0 0.0 0.0 0.0 0.0 0.0 0.0 0.0 0.0 0.0 0.0 0.0 0.0 0.0
0.0 0.0 0.0 0.0 0.0 0.0 0.0 0.0 0.0 0.0 0.0 0.0 0.0 0.0 0.0 0.0 0.0 0.0 0.0 0.0 0.0 0.0 0.0 0.0 0.0 0.0 0.0 0.0 0.0 0.0 0.2 0.0
0.0 0.0 0.0 0.0 0.0 0.0 0.0 0.0 0.0 0.0 0.0 0.0 0.0 0.0 0.0 0.0 0.0 0.0 0.0 0.0 0.0 0.0 0.0 0.0 0.0 0.0 0.0 0.0 0.0 0.0 0.0 0.2
0.0 0.0 0.0 0.0 0.0 0.0 0.0 0.0 0.0 0.0 0.0 0.0 0.0 0.0 0.0 0.0 0.0 0.0 0.0 0.0 0.0 0.0 0.0 0.0 0.0 0.0 0.0 0.0 0.0 0.0 0.0 0.1
0.0 0.0 0.0 0.0 0.0 0.0 0.0 0.0 0.0 0.0 0.0 0.0 0.0 0.0 0.0 0.0 0.0 0.0 0.0 0.0 0.0 0.0 0.0 0.0 0.0 0.0 0.0 0.0 0.0 0.0 0.0 0.1
0.2 0.0 0.8 0.5 0.1 0.1 0.0 0.0 0.0 0.0 0.0 0.0 0.0 0.0 0.0 0.1 0.1 0.0 0.0 0.0 0.0 0.0 0.0 0.0 0.0 0.0 0.0 0.0 0.0 0.0 0.0 0.0
1.3 4.0 1.6 1.0 0.6 0.6 0.6 0.0 0.1 0.0 0.0 0.0 0.0 0.0 0.1 0.1 0.1 0.1 0.1 0.0 0.0 0.0 0.0 0.0 0.0 0.0 0.0 0.0 0.0 0.0 0.0 0.1
3.4 3.7 1.5 0.8 4.7 7.3 2.4 1.6 0.2 0.1 0.0 0.0 0.1 0.0 0.0 0.1 0.1 0.0 0.1 0.1 0.0 0.0 0.0 0.0 0.0 0.0 0.0 0.0 0.0 0.0 0.0 0.0
2.9 5.7 1.9 1.8 8.5 6.9 2.9 0.8 1.2 0.7 0.0 0.0 0.1 0.1 0.2 0.2 0.1 0.1 0.2 0.2 0.2 0.1 0.2 0.0 0.0 0.0 0.0 0.0 0.0 0.0 0.0 0.0
5.6 4.9 2.8 1.8 4.2 7.5 6.2 4.1 4.6 4.4 1.7 0.6 0.2 0.9 0.2 0.2 0.3 0.8 1.2 0.9 0.8 0.2 0.2 0.1 0.3 0.7 0.0 0.3 0.3 0.2 0.1 0.0
7.6 3.9 3.9 2.7 3.0 3.4 6.4 6.6 8.1 8.5 7.1 5.3 1.7 2.3 2.2 1.4 1.8 1.6 1.9 2.0 0.6 0.4 0.2 0.5 1.5 2.5 1.4 1.6 1.4 0.6 1.7 1.5
9.2 8.8 4.2 5.3 3.5 6.3 5.9 6.1 4.4 5.8 10.4 11.8 4.0 5.1 3.9 4.8 5.8 4.5 4.5 3.9 2.8 2.0 0.7 1.6 1.6 2.4 1.5 4.0 3.3 1.1 3.5 3.5
7.3 6.3 5.9 3.7 2.5 4.1 2.4 1.7 2.5 3.7 4.0 8.7 9.7 9.5 11.3 9.2 7.7 9.5 10.6 8.1 7.0 5.5 5.3 3.9 2.7 1.9 1.2 2.0 2.4 2.0 1.6 3.2
2.4 3.8 4.6 3.7 2.0 1.4 0.7 0.2 0.0 0.1 0.2 0.2 3.0 10.5 10.7 10.9 10.9 15.7 12.4 15.3 15.1 9.9 9.8 5.5 4.0 3.7 4.4 3.3 3.9 2.4 0.9 0.4
0.5 0.3 0.8 1.5 0.6 0.2 0.0 0.0 0.0 0.0 0.0 0.0 0.0 0.0 0.3 3.6 4.9 5.8 5.1 10.3 13.8 9.5 11.1 6.5 6.9 5.1 6.7 5.3 5.7 7.3 7.3 5.4
5.7 2.8 3.1 0.4 1.2 0.0 0.7 0.0 0.0 0.0 0.0 0.0 0.0 0.0 0.0 0.5 0.3 0.1 2.1 1.6 2.1 2.8 4.0 2.5 2.4 2.9 3.0 2.2 4.2 6.3 6.9 7.3
3.9 7.3 5.5 3.4 2.3 1.8 1.3 0.9 0.9 0.0 0.0 0.0 0.0 0.1 1.0 0.8 0.0 0.0 1.2 1.0 0.4 2.0 1.9 1.3 0.8 0.4 1.6 1.1 1.0 2.3 4.6 5.0

GFSFLT1_prec_kuchsnow_297.txt.gz
Snowfall_Accumulation
0.0 0.0 0.0 0.0 0.0 0.0 0.0 0.0 0.0 0.0 0.0 0.0 0.0 0.0 0.0 0.0 0.0 0.0 0.0 0.0 0.0 0.0 0.0 0.0 0.0 0.0 0.0 0.0 0.0 0.0 0.0 0.0
0.0 0.0 0.0 0.0 0.0 0.0 0.0 0.0 0.0 0.0 0.0 0.0 0.0 0.0 0.0 0.0 0.0 0.0 0.0 0.0 0.0 0.0 0.0 0.0 0.0 0.0 0.0 0.0 0.0 0.0 0.0 0.0
0.0 0.0 0.0 0.0 0.0 0.0 0.0 0.0 0.0 0.0 0.0 0.0 0.0 0.0 0.0 0.0 0.0 0.0 0.0 0.0 0.0 0.0 0.0 0.0 0.0 0.0 0.0 0.0 0.0 0.0 0.0 0.0
0.0 0.0 0.0 0.0 0.0 0.0 0.0 0.0 0.0 0.0 0.0 0.0 0.0 0.0 0.0 0.0 0.0 0.0 0.0 0.0 0.0 0.0 0.0 0.0 0.0 0.0 0.0 0.0 0.0 0.0 0.3 0.0
0.0 0.0 0.0 0.0 0.0 0.0 0.0 0.0 0.0 0.0 0.0 0.0 0.0 0.0 0.0 0.0 0.0 0.0 0.0 0.0 0.0 0.0 0.0 0.0 0.0 0.0 0.0 0.0 0.0 0.0 0.0 0.3
0.0 0.0 0.0 0.0 0.0 0.0 0.0 0.0 0.0 0.0 0.0 0.0 0.0 0.0 0.0 0.0 0.0 0.0 0.0 0.0 0.0 0.0 0.0 0.0 0.0 0.0 0.0 0.0 0.0 0.0 0.0 0.2
0.0 0.0 0.0 0.0 0.0 0.0 0.0 0.0 0.0 0.0 0.0 0.0 0.0 0.0 0.0 0.0 0.0 0.0 0.0 0.0 0.0 0.0 0.0 0.0 0.0 0.0 0.0 0.0 0.0 0.0 0.0 0.1
0.2 0.0 0.8 0.5 0.1 0.1 0.0 0.0 0.0 0.0 0.0 0.0 0.0 0.0 0.0 0.1 0.1 0.0 0.0 0.0 0.0 0.0 0.0 0.0 0.0 0.0 0.0 0.0 0.0 0.0 0.0 0.1
1.3 4.0 1.6 1.0 0.6 0.6 0.6 0.0 0.1 0.0 0.0 0.0 0.0 0.0 0.1 0.1 0.1 0.1 0.1 0.0 0.0 0.0 0.0 0.0 0.0 0.0 0.0 0.0 0.0 0.0 0.0 0.1
3.4 3.7 1.5 0.8 4.7 7.3 2.4 1.6 0.2 0.1 0.0 0.0 0.1 0.0 0.0 0.1 0.1 0.0 0.1 0.1 0.0 0.0 0.0 0.0 0.0 0.0 0.0 0.0 0.0 0.1 0.0 0.0
2.9 5.7 1.9 1.8 8.5 6.9 2.9 0.8 1.2 0.7 0.0 0.0 0.1 0.1 0.2 0.2 0.1 0.1 0.2 0.2 0.2 0.1 0.2 0.0 0.0 0.0 0.0 0.0 0.1 0.0 0.0 0.0
5.6 4.9 2.8 1.8 4.2 7.5 6.2 4.1 4.6 4.4 1.7 0.6 0.2 0.9 0.2 0.2 0.3 0.8 1.2 0.9 0.8 0.2 0.2 0.1 0.3 0.7 0.0 0.3 0.3 0.2 0.1 0.0
7.6 3.9 3.9 2.7 3.0 3.4 6.4 6.6 8.1 8.5 7.1 5.3 1.7 2.3 2.2 1.4 1.8 1.6 1.9 2.0 0.6 0.4 0.2 0.5 1.5 2.5 1.4 1.6 1.4 0.6 1.8 1.6
9.2 8.8 4.2 5.3 3.5 6.3 5.9 6.1 4.4 5.8 10.4 11.8 4.0 5.1 3.9 4.8 5.8 4.5 4.5 3.9 2.8 2.0 0.7 1.6 1.6 2.4 1.5 4.0 3.3 1.1 3.5 3.5
7.3 6.3 5.9 3.7 2.5 4.1 2.4 1.7 2.5 3.7 4.0 8.7 9.7 9.5 11.3 9.2 7.7 9.5 10.6 8.1 7.0 5.5 5.3 3.9 2.7 1.9 1.2 2.0 2.4 2.0 1.6 3.2
2.4 3.8 4.6 3.7 2.0 1.4 0.7 0.2 0.0 0.1 0.2 0.2 3.0 10.5 10.7 10.9 10.9 15.7 12.4 15.3 15.1 9.9 9.8 5.5 4.0 3.7 4.4 3.3 3.9 2.4 0.9 0.4
0.5 0.3 0.8 1.5 0.6 0.2 0.0 0.0 0.0 0.0 0.0 0.0 0.0 0.0 0.3 3.6 4.9 5.8 5.1 10.3 13.8 9.5 11.1 6.5 6.9 5.1 6.7 5.3 5.7 7.3 7.3 5.4
5.7 2.8 3.1 0.4 1.2 0.0 0.7 0.0 0.0 0.0 0.0 0.0 0.0 0.0 0.0 0.5 0.3 0.1 2.1 1.6 2.1 2.8 4.0 2.5 2.4 2.9 3.0 2.2 4.2 6.3 6.9 7.3
3.9 7.3 5.5 3.4 2.3 1.8 1.3 0.9 0.9 0.0 0.0 0.0 0.0 0.1 1.0 0.8 0.0 0.0 1.2 1.0 0.4 2.0 1.9 1.3 0.8 0.4 1.6 1.1 1.0 2.3 4.6 5.0